Vorticity
nan nan nan nan nan nan nan nan nan nan nan nan nan nan nan nan nan nan nan nan nan nan nan nan nan nan nan nan nan nan nan nan nan nan nan nan nan nan nan nan nan nan nan nan nan
nan 7 7 7 7 7 7 7 7 7 7 8 8 9 8 11 16 9 10 9 9 7 8 5 7 3 4 5 7 8 10 10 10 9 10 6 3 8 16 3 -1 10 16 13 nan
nan 7 7 7 7 8 8 8 7 7 7 8 9 8 8 12 13 14 17 8 7 4 5 8 7 5 5 6 7 8 8 11 10 10 8 6 5 8 12 8 7 11 8 5 nan
nan 7 7 8 7 8 8 9 8 8 8 8 8 9 12 12 9 13 16 9 7 6 8 8 5 6 6 8 9 7 8 13 11 7 7 6 6 6 3 11 20 15 6 5 nan
nan 7 8 7 7 7 8 8 8 8 8 9 8 11 13 9 6 15 12 5 5 8 8 6 6 5 9 9 7 8 10 12 11 7 5 4 5 6 10 16 18 11 6 4 nan
nan 7 7 8 8 8 8 8 9 9 9 10 9 11 10 9 10 14 7 2 5 6 8 5 7 7 8 7 9 12 11 10 6 6 7 8 2 5 18 17 10 6 5 5 nan
nan 8 7 7 7 8 9 10 10 11 11 10 10 10 8 9 13 10 5 5 6 7 7 5 6 11 8 10 11 6 3 4 7 6 9 6 6 8 12 13 8 5 4 5 nan
nan 8 7 7 8 9 10 12 14 15 13 12 9 7 9 11 10 5 4 8 9 7 5 9 9 9 11 8 5 4 5 6 10 6 7 3 9 13 9 12 8 6 4 6 nan
nan 8 8 8 8 10 11 17 25 18 12 9 4 7 11 10 8 8 7 8 8 7 8 9 9 10 12 3 4 7 7 9 9 7 6 4 2 11 13 11 7 7 5 5 nan
nan 8 8 9 9 13 19 22 15 9 8 5 8 9 5 8 12 9 9 7 7 10 7 8 8 8 6 6 7 9 6 8 10 11 7 6 2 6 12 9 9 6 5 6 nan
nan 8 8 9 10 19 21 12 7 7 5 5 4 6 7 9 9 8 10 6 6 8 7 9 10 11 6 0 4 9 6 8 14 13 8 8 5 6 9 9 6 8 9 7 nan
nan 8 7 8 15 21 11 10 10 6 10 12 7 8 8 10 9 9 8 6 9 8 7 7 9 8 10 9 4 4 4 8 13 12 5 10 12 13 11 10 7 6 6 6 nan
nan 8 9 8 24 17 9 11 5 6 9 12 14 10 15 10 9 10 3 5 9 7 9 4 10 13 10 7 7 3 6 6 10 10 6 6 16 13 8 10 11 9 9 7 nan
nan 9 6 22 23 8 15 4 7 9 7 14 11 12 11 7 10 12 9 5 10 10 6 9 10 11 11 6 7 8 10 12 14 4 7 9 6 12 12 11 9 12 12 8 nan
nan 12 14 20 12 9 4 7 13 8 7 11 11 9 9 10 9 8 9 11 11 10 4 8 13 8 8 16 6 10 19 17 5 5 9 10 5 9 10 15 15 14 11 11 nan
nan 8 17 18 10 5 3 14 12 8 12 9 9 8 5 8 7 10 8 4 9 10 6 7 9 10 9 19 13 5 5 7 7 7 7 7 10 8 9 8 11 12 15 16 nan
nan 13 23 11 5 8 14 14 9 7 10 12 8 10 7 9 7 9 11 4 4 8 8 11 9 9 11 8 14 9 1 1 5 4 7 11 8 10 12 7 5 4 11 15 nan
nan 29 23 6 3 10 15 11 7 8 7 6 11 12 13 7 8 9 6 8 7 4 8 13 12 8 7 8 12 11 6 9 10 9 8 10 8 7 8 8 9 6 7 14 nan
nan 25 10 10 12 11 13 8 9 5 7 9 11 10 10 7 10 11 7 9 14 8 3 9 7 8 11 13 15 10 10 8 12 9 8 8 10 10 7 3 7 8 8 11 nan
nan 10 9 17 14 9 10 8 8 7 8 11 10 11 11 12 11 9 7 9 16 13 3 7 5 11 11 3 10 15 13 9 8 8 7 4 8 14 12 8 5 8 8 8 nan
nan 9 12 11 9 12 11 9 9 9 8 10 9 7 11 11 11 10 6 6 15 16 10 4 7 10 7 12 7 9 4 7 7 12 15 9 10 12 13 15 7 5 5 9 nan
nan 9 10 8 8 10 11 8 9 11 6 8 9 9 9 8 11 12 10 11 15 10 8 5 9 8 9 9 9 10 13 8 10 9 8 12 13 12 12 11 8 6 8 8 nan
nan 11 9 12 10 9 9 11 10 10 8 10 10 12 9 4 9 13 10 16 15 8 10 6 7 8 6 7 10 9 8 9 10 12 11 4 8 10 9 6 6 9 11 7 nan
nan 12 10 11 11 8 10 12 9 12 15 9 11 14 10 10 8 7 10 15 13 6 10 9 11 12 8 7 9 12 9 7 4 9 7 9 9 11 9 6 6 9 9 8 nan
nan 10 9 9 7 8 11 9 11 9 10 12 12 8 9 12 11 10 9 8 12 11 7 10 9 10 12 12 7 11 13 8 5 8 3 11 9 10 17 15 9 6 7 7 nan
nan 10 10 10 7 10 12 10 9 10 10 8 5 6 10 9 5 2 9 11 7 7 7 11 13 10 9 9 11 8 10 9 6 7 9 6 11 12 12 18 14 7 4 5 nan
nan nan nan nan nan nan nan nan nan nan nan nan nan nan nan nan nan nan nan nan nan nan nan nan nan nan nan nan nan nan nan nan nan nan nan nan nan nan nan nan nan nan nan nan nan
CAPE
0 0 3 0 0 0 0 1 2 1 1 0 0 0 2 0 0 0 0 0 0 0 0 0 0 16 117 47 138 134 115 111 69 55 42 26 122 324 259 42 185 273 175 293 626
0 1 1 2 2 1 1 2 1 0 0 0 0 0 1 1 0 0 0 0 0 0 0 0 0 0 19 146 61 57 111 46 15 21 14 43 36 210 218 71 234 202 304 522 734
4 4 4 3 1 3 3 2 2 1 2 0 0 1 1 2 0 0 0 0 0 0 0 0 0 0 0 93 201 123 113 41 11 3 32 117 159 128 231 132 210 250 390 530 522
1 1 1 1 2 2 1 0 1 3 2 0 0 1 2 0 0 0 0 0 0 0 0 0 0 0 0 0 240 205 339 107 18 69 42 110 72 111 174 230 150 185 329 482 530
2 1 1 2 3 3 3 1 1 1 3 1 1 1 0 0 0 0 0 10 0 0 0 0 0 0 0 189 237 180 293 148 158 41 36 14 76 142 208 244 224 143 302 368 492
3 4 2 2 2 3 3 2 1 0 0 0 1 1 0 0 0 0 0 0 0 0 0 0 0 0 0 154 2 164 414 229 120 105 73 58 76 193 277 258 198 183 255 341 456
2 3 4 4 3 3 1 0 1 1 0 1 1 0 0 0 0 0 0 0 0 0 0 0 0 0 0 13 556 450 440 391 252 130 137 106 81 331 252 228 239 198 172 267 359
3 3 3 2 2 2 0 1 1 1 0 0 0 0 0 0 0 0 0 0 0 0 0 0 0 0 251 377 464 560 467 331 523 247 201 96 107 195 143 280 263 216 189 210 293
3 2 2 2 3 3 1 1 0 0 0 0 0 0 0 0 0 0 0 0 0 0 0 0 0 25 191 264 427 563 351 329 534 496 311 140 166 60 221 326 320 285 284 303 341
2 1 1 1 1 3 0 0 0 0 0 0 0 0 0 0 0 0 0 0 0 0 0 0 0 0 0 154 38 290 357 187 267 529 455 319 335 94 182 224 353 334 307 345 356
2 0 0 0 0 1 0 0 0 0 0 0 0 0 0 0 0 0 0 0 0 0 0 0 0 0 3 85 0 61 251 10 190 624 596 535 369 410 154 277 230 147 281 243 402
1 0 0 1 0 0 0 0 0 0 0 0 0 0 0 0 0 0 0 0 0 0 0 0 0 0 0 0 0 0 0 0 462 534 411 258 400 327 216 326 329 226 238 241 214
1 0 0 0 0 0 0 0 0 0 0 0 0 0 0 0 0 0 0 0 0 0 0 0 0 0 0 0 0 0 0 0 1 449 328 649 569 617 519 206 288 300 268 189 212
1 0 0 1 0 0 0 0 0 0 0 0 0 0 0 0 0 0 0 0 0 0 0 0 0 0 0 0 0 0 0 0 477 390 101 483 97 213 629 610 255 286 263 275 239
0 0 0 0 0 0 0 0 0 0 0 0 0 0 0 0 0 0 0 0 0 0 0 0 0 0 0 0 0 0 2 19 273 168 47 428 156 189 613 702 684 333 213 265 195
0 0 0 0 0 0 0 0 0 0 0 0 0 0 0 0 0 0 0 0 0 0 0 0 0 0 0 0 0 0 40 53 69 118 87 43 109 59 775 661 419 335 323 161 224
0 0 1 0 0 0 0 0 0 0 0 0 0 0 0 0 0 0 0 0 0 0 0 0 0 0 0 0 0 56 114 139 109 123 47 19 68 63 170 116 201 259 301 286 211
0 0 0 0 0 0 0 0 0 0 0 0 0 0 0 0 0 0 0 0 0 0 0 0 0 0 0 0 33 68 168 40 26 11 2 15 93 71 160 82 201 184 145 308 396
0 0 0 0 0 0 0 0 0 0 0 0 0 0 0 0 0 0 0 0 0 0 0 0 0 0 0 0 0 1 70 0 0 0 0 0 22 57 134 73 107 129 113 302 255
0 0 0 0 0 0 0 0 0 0 0 0 0 0 0 0 0 0 0 0 0 0 0 0 0 0 0 0 0 0 0 0 0 0 0 2 51 35 253 226 57 61 35 14 27
0 0 0 0 0 0 0 0 0 0 0 0 0 0 0 0 0 0 0 0 0 0 0 0 0 0 0 0 0 0 0 0 0 3 0 0 0 112 191 235 116 4 1 61 130
0 0 0 0 0 0 0 0 0 0 0 0 0 0 0 0 0 0 0 0 0 0 0 0 0 0 0 0 0 0 1 11 0 20 7 0 0 9 29 31 1 0 0 79 129
0 0 0 0 0 0 0 0 0 0 0 0 0 0 0 0 0 0 0 0 0 0 0 0 3 17 0 0 0 1 0 0 0 12 62 19 0 32 2 4 0 0 0 66 137
0 0 0 0 0 0 0 0 0 0 0 0 0 0 0 0 0 0 0 0 0 0 0 0 0 8 1 4 9 5 0 0 3 8 3 0 0 0 161 118 1 24 225 160 75
0 0 0 0 0 0 0 0 0 0 0 0 0 0 0 0 0 0 0 0 0 0 0 0 0 0 0 0 0 0 0 0 0 0 0 0 3 5 15 248 88 0 66 153 91
0 0 0 0 0 0 0 0 0 0 0 0 0 0 0 0 0 0 0 0 0 0 0 0 0 0 0 0 0 0 0 0 0 0 0 0 18 0 0 0 118 0 182 389 295
0 0 0 0 0 0 0 0 0 0 0 0 0 0 0 0 0 0 0 0 0 0 0 0 0 0 0 0 0 0 0 0 0 0 13 31 36 22 18 25 93 91 81 416 810